Terug naar catalogus

ANSER-FLW2

ActiefWetenschapPO
NORAD 58018·PAYLOAD·🇪🇸 Spain

Gelanceerd Oct 9, 2023 vanaf Guiana Space Centre

Loading…

Volgende Passages (komende 24 uur)

TLE

VersSource: Space-Track

Epoch: Sep 14, 2026, 12:25 UTC

1 58018U 23155C   26257.51766272  .00025480  00000-0  35118-3 0  9996
2 58018  97.5491 351.2104 0002693 147.6689 212.4731 15.57212170162815

Volg ANSER-FLW2 in realtime met AllMySat

Download on the App Store